[[{"header":{"parameterUnit":"m.s-1","parameterCategory":1,"la1":30.2991,"la2":30.254,"lo1":-89.0895,"lo2":-89.0444,"dy":0.0017,"dx":0.0017,"nx":28,"ny":28,"refTime":"2024-05-20T03:00:00:Z","depth":0,"parameterNumber":2,"parameterNumberName":"U-component_of_WINDS"},"data":[0,0,0,0,0,0,0,0,0,0,0,0,0,0,0,0,0,0,0,0,0,0,0,0,0,0,0,0,0,0,0,0,0,0,0,0,0,0,0,0,0,0,0,0,0,0,0,0,0,0,0,0,0,0,0,0,0,0,-1.4532,-1.4532,0,-1.4538,-1.4538,-1.4538,-1.4521,-1.452,-1.452,-1.4519,-1.4525,-1.4526,-1.4526,0,0,0,0,0,0,0,0,0,0,0,0,0,-1.4506,-1.4507,-1.4532,-1.4532,-1.4532,-1.4538,-1.4538,-1.4538,-1.4521,-1.452,-1.452,-1.4519,-1.4525,-1.4526,-1.4526,0,0,0,0,0,0,0,0,0,0,0,0,0,-1.4515,-1.4507,-1.4532,-1.4524,-1.4524,-1.4538,-1.4538,-1.4538,-1.4521,-1.452,-1.4519,-1.4519,-1.4525,-1.4525,-1.4526,-1.4548,0,0,-1.4529,-1.453,0,0,0,0,0,0,0,0,-1.4515,-1.4516,-1.4525,-1.4525,-1.4524,-1.4528,-1.4531,-1.4542,-1.4521,-1.4522,-1.4519,-1.4518,-1.4527,-1.4527,-1.453,-1.4549,-1.4549,-1.453,-1.453,-1.4531,-1.4531,0,0,0,0,0,0,0,-1.4514,-1.4516,-1.4534,-1.4526,-1.4525,-1.452,-1.4521,-1.4533,-1.4529,-1.4522,-1.4521,-1.4522,-1.4526,-1.4529,-1.453,-1.4549,-1.4529,-1.453,-1.4531,-1.4531,-1.4585,-1.4586,0,0,0,0,0,0,-1.4514,-1.4515,-1.4534,-1.4535,-1.4517,-1.4522,-1.4522,-1.4527,-1.4528,-1.4528,-1.4522,-1.4521,-1.4528,-1.4529,-1.453,-1.4556,-1.4531,-1.4531,-1.4532,-1.4584,-1.4585,-1.4586,0,0,0,0,0,0,-1.4514,-1.4516,-1.4534,-1.4525,-1.4527,-1.4523,-1.4529,-1.4528,-1.4531,-1.4529,-1.4528,-1.4526,-1.4527,-1.4529,-1.4544,-1.4556,-1.4532,-1.4533,-1.4583,-1.4585,-1.4586,-1.4607,0,0,0,0,0,0,-1.4513,-1.4516,-1.4525,-1.4525,-1.4527,-1.4548,-1.453,-1.4529,-1.4533,-1.4531,-1.4532,-1.4532,-1.4527,-1.4543,-1.4545,-1.4556,-1.4534,-1.4582,-1.4584,-1.4586,-1.4605,-1.4608,-1.4611,0,0,0,0,0,-1.4512,-1.453,-1.4525,-1.4527,-1.4537,-1.4548,-1.455,-1.4544,-1.4534,-1.4542,-1.4541,-1.4532,-1.4554,-1.4544,-1.4547,-1.4559,-1.4582,-1.4584,-1.4585,-1.4603,-1.4608,-1.4611,0,0,0,0,0,0,-1.4531,-1.453,-1.4524,-1.4543,-1.4546,-1.4545,-1.4556,-1.4549,-1.4554,-1.4552,-1.4545,-1.4545,-1.4561,-1.4562,-1.4551,-1.458,-1.4566,-1.4569,-1.4579,-1.4583,-1.4586,-1.4586,-1.4534,0,0,0,0,0,-1.4538,-1.4547,-1.4545,-1.4562,-1.4563,-1.4559,-1.4564,-1.4559,-1.4562,-1.4563,-1.4562,-1.4565,-1.4573,-1.4578,-1.4585,-1.4605,-1.4605,-1.4615,-1.4618,-1.4621,-1.4623,-1.4633,-1.4637,-1.4593,-1.4593,-1.4593,0,0,-1.4551,-1.4551,-1.4557,-1.4565,-1.4567,-1.4576,-1.456,-1.4571,-1.4578,-1.4564,-1.4578,-1.4578,-1.4581,-1.4598,-1.4606,-1.4599,-1.4635,-1.4623,-1.4625,-1.4626,-1.4635,-1.4639,-1.4643,-1.4594,-1.4594,-1.4593,0,0,-1.4579,-1.4581,-1.4595,-1.4597,-1.4599,-1.4596,-1.46,-1.46,-1.46,-1.4614,-1.4604,-1.4612,-1.4625,-1.4627,-1.463,-1.466,-1.4651,-1.4662,-1.4679,-1.4689,-1.4693,-1.4696,-1.4706,-1.4709,-1.4664,-1.4664,-1.4664,0,-1.4595,-1.4609,-1.4603,-1.4614,-1.4617,-1.4606,-1.4619,-1.4622,-1.4627,-1.4629,-1.4622,-1.4638,-1.4639,-1.4656,-1.4664,-1.4667,-1.467,-1.4662,-1.4693,-1.4696,-1.4698,-1.4708,-1.4712,-1.4666,-1.4665,-1.4665,-1.4665,0,-1.4628,-1.4638,-1.4649,-1.4653,-1.4658,-1.4671,-1.4666,-1.4672,-1.4667,-1.4665,-1.4679,-1.468,-1.4686,-1.469,-1.4685,-1.4707,-1.4703,-1.4694,-1.468,-1.4704,-1.4713,-1.4716,-1.4667,-1.4667,-1.4667,-1.4666,0,0,-1.4669,-1.467,-1.4674,-1.4676,-1.4678,-1.4685,-1.4697,-1.4703,-1.4708,-1.4712,-1.4721,-1.4733,-1.4725,-1.4728,-1.4723,-1.4732,-1.4755,-1.4722,-1.4722,-1.4728,-1.4778,-1.4784,-1.4789,-1.475,-1.475,-1.4751,-1.4778,0,-1.4697,-1.4717,-1.4711,-1.4731,-1.474,-1.4729,-1.4739,-1.4741,-1.474,-1.4747,-1.4745,-1.4753,-1.4742,-1.4744,-1.4752,-1.475,-1.4765,-1.4748,-1.4758,-1.4758,-1.4757,-1.4793,-1.48,-1.4825,-1.4781,-1.4782,-1.4782,0,-1.4732,-1.4737,-1.4757,-1.4758,-1.4761,-1.477,-1.4776,-1.4783,-1.4785,-1.4783,-1.4787,-1.478,-1.4792,-1.4778,-1.4793,-1.4782,-1.4786,-1.4786,-1.4787,-1.4787,-1.4771,-1.4794,-1.4833,-1.4837,-1.4788,-1.4787,-1.4787,0,-1.4759,-1.4771,-1.4784,-1.4786,-1.4787,-1.4794,-1.4795,-1.4796,-1.48,-1.4805,-1.4807,-1.4814,-1.4817,-1.4822,-1.4817,-1.4807,-1.4833,-1.4819,-1.4831,-1.4831,-1.4837,-1.4836,-1.4876,-1.484,-1.484,-1.484,-1.484,0,-1.479,-1.4803,-1.4796,-1.4805,-1.4819,-1.4812,-1.4827,-1.4826,-1.4827,-1.4836,-1.4827,-1.4834,-1.4828,-1.4835,-1.4831,-1.4844,-1.4846,-1.4844,-1.4843,-1.4845,-1.4845,-1.4847,-1.4845,-1.4841,-1.4841,-1.484,-1.484,0,-1.4822,-1.4818,-1.4833,-1.4832,-1.4832,-1.4843,-1.4842,-1.485,-1.4848,-1.4858,-1.486,-1.4857,-1.4864,-1.486,-1.4868,-1.4866,-1.4883,-1.4879,-1.4882,-1.4881,-1.4893,-1.4892,-1.4935,-1.4941,-1.4901,-1.4902,-1.4902,0,-1.4842,-1.4852,-1.4852,-1.4857,-1.4858,-1.4866,-1.487,-1.4864,-1.4869,-1.4872,-1.4879,-1.4886,-1.4892,-1.4905,-1.4903,-1.4909,-1.4905,-1.492,-1.4906,-1.4907,-1.4905,-1.4904,-1.4905,-1.4923,-1.4923,-1.4924,-1.4924,0,-1.4878,-1.4876,-1.4882,-1.4887,-1.4892,-1.4896,-1.49,-1.4904,-1.4898,-1.4904,-1.4912,-1.4916,-1.4924,-1.4931,-1.4936,-1.4937,-1.4929,-1.4928,-1.4932,-1.4933,-1.4934,-1.4933,-1.4889,-1.4927,-1.4927,-1.4927,-1.4927,-1.4926,-1.4905,-1.4912,-1.4914,-1.4921,-1.4923,-1.4926,-1.4933,-1.4932,-1.4938,-1.4944,-1.494,-1.4949,-1.4951,-1.4957,-1.4959,-1.4966,-1.496,-1.4964,-1.4965,-1.4967,-1.4968,-1.4933,-1.4967,-1.4967,-1.4967,-1.4966,-1.4966,0,-1.494,-1.494,-1.4946,-1.4951,-1.4957,-1.4949,-1.4953,-1.4958,-1.4966,-1.4968,-1.4973,-1.4982,-1.4989,-1.4987,-1.4993,-1.4999,-1.4996,-1.5001,-1.5,-1.5,-1.4973,-1.497,-1.5003,-1.5003,-1.5003,-1.5003,-1.5003,-1.5003,-1.4958,-1.4971,-1.4969,-1.4982,-1.4983,-1.4991,-1.4994,-1.4997,-1.4998,-1.5008,-1.5014,-1.5013,-1.5014,-1.5019,-1.5025,-1.5025,-1.5027,-1.5033,-1.5031,-1.5006,-1.5002,-1.4999,-1.4995,-1.5034,-1.5034,-1.5058,-1.5058,-1.5058]},{"header":{"parameterUnit":"m.s-1","parameterCategory":1,"la1":30.2991,"la2":30.254,"lo1":-89.0895,"lo2":-89.0444,"dy":0.0017,"dx":0.0017,"nx":28,"ny":28,"refTime":"2024-05-20T03:00:00:Z","depth":0,"parameterNumber":3,"parameterNumberName":"V-component_of_WINDS"},"data":[0,0,0,0,0,0,0,0,0,0,0,0,0,0,0,0,0,0,0,0,0,0,0,0,0,0,0,0,0,0,0,0,0,0,0,0,0,0,0,0,0,0,0,0,0,0,0,0,0,0,0,0,0,0,0,0,0,0,1.7383,1.7383,0,1.7362,1.7362,1.7361,1.7323,1.7322,1.7321,1.732,1.7299,1.7299,1.7299,0,0,0,0,0,0,0,0,0,0,0,0,0,1.7391,1.7391,1.7383,1.7383,1.7383,1.7362,1.7362,1.7361,1.7323,1.7322,1.7321,1.732,1.7298,1.7299,1.7299,0,0,0,0,0,0,0,0,0,0,0,0,0,1.738,1.7391,1.7383,1.7361,1.7359,1.7362,1.7362,1.7361,1.7323,1.7322,1.7321,1.732,1.7298,1.7299,1.7299,1.7322,0,0,1.7299,1.7299,0,0,0,0,0,0,0,0,1.7381,1.738,1.7364,1.7362,1.736,1.7344,1.7356,1.7348,1.7323,1.7337,1.732,1.7319,1.7314,1.7313,1.7312,1.7321,1.732,1.7299,1.7299,1.7299,1.7299,0,0,0,0,0,0,0,1.7382,1.7381,1.7375,1.7364,1.7362,1.7352,1.7349,1.7354,1.7332,1.7335,1.7332,1.733,1.7313,1.7312,1.7311,1.732,1.7299,1.7299,1.7299,1.73,1.7348,1.7349,0,0,0,0,0,0,1.7386,1.7382,1.7375,1.7374,1.7368,1.7353,1.735,1.735,1.7332,1.7328,1.7331,1.7329,1.7312,1.7311,1.731,1.7336,1.7299,1.73,1.73,1.7346,1.7348,1.7349,0,0,0,0,0,0,1.7386,1.7386,1.7376,1.7377,1.7375,1.7354,1.7355,1.735,1.7349,1.7329,1.7325,1.7334,1.7311,1.731,1.7319,1.7335,1.73,1.73,1.7345,1.7347,1.7349,1.7389,0,0,0,0,0,0,1.7386,1.7386,1.7394,1.7378,1.7375,1.7386,1.7355,1.7351,1.7349,1.7345,1.733,1.7327,1.731,1.7319,1.732,1.7335,1.73,1.7344,1.7346,1.7348,1.7386,1.7392,1.7397,0,0,0,0,0,1.7387,1.7406,1.7395,1.7394,1.7385,1.7387,1.7386,1.7366,1.7351,1.7359,1.7346,1.7327,1.7333,1.7321,1.7321,1.7336,1.7342,1.7345,1.7348,1.7384,1.7391,1.7397,0,0,0,0,0,0,1.7425,1.7404,1.7391,1.7405,1.7398,1.738,1.739,1.7374,1.7371,1.7368,1.7344,1.7341,1.7354,1.7346,1.7332,1.7358,1.7335,1.7338,1.7363,1.7369,1.7374,1.7376,1.73,0,0,0,0,0,1.7436,1.7439,1.742,1.7434,1.7432,1.7412,1.7412,1.7397,1.7389,1.7386,1.7374,1.7366,1.7367,1.7367,1.7366,1.7385,1.7382,1.7396,1.7401,1.7406,1.7408,1.7418,1.7424,1.7358,1.7358,1.7358,0,0,1.7457,1.7445,1.7449,1.7442,1.7435,1.7439,1.7409,1.7415,1.7417,1.7386,1.7395,1.7386,1.7376,1.7391,1.7397,1.7385,1.7426,1.7409,1.7413,1.7413,1.7422,1.7428,1.7434,1.736,1.7359,1.7359,0,0,1.7497,1.7489,1.75,1.7494,1.7484,1.747,1.7473,1.7458,1.7451,1.7459,1.7436,1.7439,1.744,1.7435,1.7432,1.7471,1.7454,1.7472,1.75,1.751,1.7515,1.7519,1.7534,1.7539,1.7474,1.7474,1.7475,0,1.7525,1.7529,1.7508,1.7515,1.7513,1.7486,1.7498,1.7493,1.7483,1.7482,1.7469,1.747,1.7461,1.7474,1.7484,1.7483,1.7486,1.7473,1.7516,1.752,1.7524,1.7538,1.7543,1.7477,1.7476,1.7476,1.7476,0,1.7564,1.7568,1.7579,1.757,1.7569,1.7579,1.7559,1.7561,1.7547,1.7535,1.7545,1.7534,1.753,1.7532,1.7519,1.7544,1.7537,1.752,1.7497,1.7533,1.7546,1.7551,1.748,1.7479,1.7478,1.7478,0,0,1.7628,1.7608,1.7612,1.7608,1.7595,1.7598,1.7606,1.7603,1.7606,1.76,1.7607,1.7608,1.7593,1.759,1.7575,1.7584,1.7617,1.7566,1.7566,1.7577,1.7645,1.7658,1.7664,1.7605,1.7606,1.7607,1.7646,0,1.7666,1.7679,1.7661,1.7678,1.7682,1.7656,1.7663,1.7657,1.7646,1.7648,1.7636,1.7638,1.7618,1.7616,1.7623,1.7611,1.763,1.7608,1.7612,1.7612,1.7615,1.7671,1.7684,1.7721,1.7651,1.7651,1.7652,0,1.7711,1.7708,1.7726,1.7713,1.7714,1.7721,1.7717,1.7719,1.7711,1.7702,1.77,1.7682,1.769,1.7668,1.7678,1.7664,1.7664,1.7659,1.7659,1.7659,1.7634,1.7672,1.7733,1.7738,1.7659,1.7659,1.7658,0,1.7757,1.7757,1.7768,1.7765,1.775,1.7755,1.7749,1.774,1.7739,1.7736,1.7736,1.7734,1.7733,1.7731,1.7714,1.7699,1.7727,1.7703,1.7721,1.7722,1.7728,1.7728,1.779,1.7728,1.7728,1.7728,1.7728,0,1.7801,1.7813,1.7788,1.7795,1.7808,1.7787,1.78,1.7792,1.7784,1.7789,1.7766,1.7771,1.7748,1.7751,1.7738,1.7749,1.7748,1.7742,1.7739,1.7745,1.7745,1.7745,1.7742,1.7729,1.7729,1.7729,1.7729,0,1.7854,1.7837,1.7848,1.7832,1.7829,1.7839,1.7826,1.7832,1.782,1.7827,1.7827,1.7809,1.7811,1.7794,1.7793,1.7784,1.7802,1.7793,1.7805,1.7802,1.7821,1.782,1.7885,1.7893,1.7826,1.7827,1.7827,0,1.7883,1.7892,1.7878,1.788,1.7875,1.7878,1.7877,1.7857,1.7858,1.785,1.7857,1.7857,1.7856,1.7861,1.7848,1.7847,1.7839,1.7862,1.7839,1.7845,1.784,1.784,1.7841,1.7867,1.7868,1.7868,1.7869,0,1.7938,1.7929,1.793,1.7928,1.7928,1.7925,1.7921,1.7924,1.7902,1.7904,1.7906,1.7906,1.7905,1.7906,1.7903,1.7896,1.7879,1.7876,1.7881,1.7887,1.7893,1.789,1.7818,1.7875,1.7874,1.7874,1.7874,1.7873,1.798,1.7987,1.7978,1.798,1.7974,1.7971,1.7976,1.7965,1.7967,1.7965,1.7953,1.7957,1.7949,1.7943,1.7939,1.7942,1.7931,1.7937,1.7939,1.7941,1.7945,1.7892,1.7942,1.7942,1.7941,1.7941,1.7941,0,1.8034,1.8027,1.8028,1.8024,1.8025,1.8009,1.8003,1.8006,1.801,1.8004,1.8004,1.8007,1.8008,1.7995,1.7995,1.8,1.7992,1.8,1.8,1.7999,1.7954,1.7951,1.8007,1.8007,1.8007,1.8007,1.8007,1.8007,1.8062,1.8073,1.8064,1.8072,1.8065,1.8069,1.8068,1.8065,1.806,1.8065,1.8065,1.8057,1.8049,1.8047,1.8048,1.8044,1.8045,1.8056,1.805,1.8008,1.8002,1.7996,1.7993,1.8057,1.8057,1.8095,1.8095,1.8095]}]]